This demonstration page uses our WeatherBlox Daily Observations layout. Learn more.

Left ArrowRight Arrow

Hourly Observations for October 13, 2016

Temp ( °F °C ) Dew Point ( °F °C ) Humidity (%) Winds ( mph kmh ) Pressure ( in mb ) Visibility ( mi km ) Precip ( " mm )
12:53 am 00:53 Cloudy 61 16.1 47 8.3 60 60 NE 13 20 30.03 1017 10 16 0.00 0.00
1:53 am 01:53 Mostly Cloudy 59 15 47 8.3 64 64 NE 12 19 30.04 1017 10 16 0.00 0.00
2:53 am 02:53 Clear 57 13.9 48 8.9 72 72 NE 9 15 30.04 1017 10 16 0.00 0.00
3:53 am 03:53 Mostly Clear 56 13.3 48 8.9 75 75 N 8 13 30.06 1018 10 16 0.00 0.00
4:53 am 04:53 Partly Cloudy 55 12.8 48 8.9 77 77 NNE 10 17 30.06 1018 10 16 0.00 0.00
5:53 am 05:53 Clear 54 12.2 47 8.3 77 77 N 7 11 30.10 1019 10 16 0.00 0.00
6:53 am 06:53 Clear 54 12.2 47 8.3 77 77 NNE 7 11 30.11 1020 10 16 0.00 0.00
7:53 am 07:53 Cloudy 54 12.2 47 8.3 77 77 NE 7 11 30.12 1020 10 16 0.00 0.00
8:53 am 08:53 Cloudy 56 13.3 47 8.3 72 72 NE 6 9 30.13 1020 10 16 0.00 0.00
9:37 am 09:37 Partly Cloudy 58 14.4 48 8.9 70 70 NE 7 11 30.18 1022 10 16 0.00 0.00
9:53 am 09:53 Mostly Cloudy 58 14.4 48 8.9 70 70 NNE 7 11 30.16 1021 10 16 0.00 0.00
10:01 am 10:01 Mostly Cloudy 59 15 48 8.9 67 67 NE 7 11 30.18 1022 10 16 0.00 0.00
10:53 am 10:53 Cloudy 59 15 49 9.4 69 69 NE 7 11 30.16 1021 10 16 0.00 0.00
11:53 am 11:53 Cloudy 60 15.6 50 10 70 70 NE 6 9 30.16 1021 10 16 0.00 0.00
12:53 pm 12:53 Cloudy 61 16.1 50 10 67 67 E 5 7 30.14 1021 10 16 0.00 0.00
1:53 pm 13:53 Cloudy 62 16.7 50 10 65 65 E 5 7 30.12 1020 10 16 0.00 0.00
2:53 pm 14:53 Cloudy 64 17.8 51 10.6 63 63 VRB 7 11 30.09 1019 10 16 0.00 0.00
3:53 pm 15:53 Cloudy 64 17.8 51 10.6 63 63 NNE 6 9 30.07 1018 10 16 0.00 0.00
4:53 pm 16:53 Cloudy 64 17.8 52 11.1 65 65 ENE 3 6 30.06 1018 10 16 0.00 0.00
5:26 pm 17:26 Partly Cloudy 64 18 52 11 64 64 E 9 15 30.03 1017 10 16 0.00 0.00
5:49 pm 17:49 Mostly Cloudy 63 17 52 11 68 68 E 9 15 30.06 1018 10 16 0.00 0.00
5:53 pm 17:53 Partly Cloudy 62 16.7 52 11.1 70 70 E 9 15 30.06 1018 10 16 0.00 0.00
6:53 pm 18:53 Partly Cloudy 61 16.1 52 11.1 72 72 E 9 15 30.06 1018 10 16 0.00 0.00
7:06 pm 19:06 Mostly Cloudy 61 16 52 11 72 72 E 8 13 30.06 1018 10 16 0.00 0.00
7:35 pm 19:35 Mostly Clear 59 15 52 11.1 78 78 E 8 13 30.06 1018 10 16 0.00 0.00
7:53 pm 19:53 Clear 59 15 52 11.1 78 78 E 7 11 30.07 1018 10 16 0.00 0.00
8:53 pm 20:53 Mostly Cloudy 58 14.4 52 11.1 81 81 ENE 6 9 30.09 1019 10 16 0.00 0.00
9:36 pm 21:36 Cloudy 59 15 52 11.1 78 78 E 6 9 30.09 1019 10 16 0.00 0.00
9:53 pm 21:53 Cloudy 59 15 52 11.1 78 78 ENE 8 13 30.09 1019 10 16 0.00 0.00
10:53 pm 22:53 Cloudy 60 15.6 52 11.1 75 75 E 5 7 30.10 1019 10 16 0.00 0.00
11:53 pm 23:53 Cloudy 61 16.1 51 10.6 70 70 E 5 7 30.10 1019 10 16 0.00 0.00

Powered by AerisWeather